{"data":{"norad_id":53250,"epoch":"2026-09-19T23:36:26.408736Z","epoch_age_seconds":120011,"freshness":"FRESH","line1":"1 53250U 22086J   26262.98363899 -.00001032  00000+0 -19441-4 0  9996","line2":"2 53250  53.1618  27.7912 0001398  52.3790 307.7339 15.34372599230595","mean_motion":15.34372599,"eccentricity":0.0001398,"inclination_deg":53.1618,"raan_deg":27.7912,"arg_perigee_deg":52.379,"mean_anomaly_deg":307.7339,"bstar":-1.9441e-5,"rev_number":23059,"period_min":93.849434025249,"perigee_km":461.82832211432,"apogee_km":463.74104381687,"semimajor_km":6840.9216829656,"source":"CELESTRAK","updated_at":"2026-09-20T09:00:40.213939Z"}}